Probability
0 0 0 0 0 0 0 0 0 0 0 0 0 0 0 0 0 3 3 3 3 0 0 0 0 0 0 0 0 3 6 6 3 0 3 0 0 0 3 3 6 6 0
0 0 0 0 0 0 0 0 0 0 0 0 0 0 0 0 0 0 0 0 0 0 0 0 0 0 0 0 0 0 3 3 3 0 0 0 0 0 0 0 0 0 3
0 0 0 0 0 0 0 0 0 0 0 0 0 0 0 0 0 0 0 0 0 0 0 0 0 0 0 3 0 0 3 0 3 0 0 3 0 0 0 0 0 0 0
0 0 0 0 0 0 0 0 0 0 0 0 0 0 0 0 0 0 0 0 0 0 0 0 0 0 0 0 0 0 0 3 0 0 3 0 0 0 0 0 0 0 0
0 0 0 0 0 0 0 0 0 0 0 0 0 0 0 0 0 0 0 0 0 0 0 0 0 0 0 0 0 0 0 0 0 0 0 3 0 0 0 0 0 0 3
0 0 0 0 0 0 0 0 0 0 0 0 0 0 0 0 0 0 0 0 0 3 3 3 0 0 0 0 0 0 0 0 0 0 0 0 0 0 0 0 0 3 0
0 0 0 0 0 0 0 0 0 0 0 0 0 0 0 0 0 0 0 0 3 3 3 3 0 0 0 0 0 0 0 0 0 0 0 0 0 0 0 0 0 0 0
0 0 0 0 0 0 0 0 0 0 0 0 0 0 0 0 0 0 0 0 0 0 0 0 0 0 0 0 0 0 0 0 0 0 0 0 0 0 0 0 0 0 0
0 0 0 0 0 0 0 0 0 0 0 0 0 0 0 0 0 0 0 0 0 0 0 0 0 0 0 0 0 0 0 0 0 0 0 0 0 0 0 0 0 0 0
0 0 0 0 0 0 0 0 0 0 0 0 0 0 0 0 0 0 0 0 0 0 0 0 0 0 0 0 0 0 0 0 0 0 0 0 0 0 0 0 0 0 0
0 0 0 0 0 0 0 0 0 0 0 0 0 0 0 0 0 0 0 0 0 0 0 0 0 0 0 0 0 0 0 0 0 0 0 0 0 0 0 0 0 0 0
0 0 0 0 0 0 0 0 0 0 0 0 0 0 0 0 0 0 0 0 0 0 0 0 0 0 0 0 0 0 0 0 0 0 0 0 0 0 0 0 0 0 0
0 0 0 0 0 0 0 0 0 0 0 0 0 0 0 0 0 0 0 0 0 0 0 0 0 0 0 0 0 0 0 0 0 0 0 0 0 0 0 0 0 0 0
0 0 0 0 0 0 0 0 0 0 0 0 0 0 0 0 0 0 0 0 0 0 0 0 0 0 0 0 0 0 0 0 0 0 0 0 0 0 0 0 0 0 0
0 0 0 0 0 0 0 0 0 0 0 0 0 0 0 0 0 0 0 0 0 0 0 0 0 0 0 0 0 0 0 0 0 0 0 0 0 0 0 0 0 0 0
0 0 0 0 0 0 0 0 0 0 0 0 0 0 0 0 0 0 0 0 0 0 0 0 0 0 0 0 0 0 0 0 0 0 0 0 0 0 0 0 0 0 0
0 0 0 0 0 0 0 0 0 0 0 0 0 0 0 0 0 0 0 0 0 0 0 0 0 0 0 0 0 0 0 0 0 0 0 0 0 0 0 0 0 0 0
0 0 0 0 0 0 0 0 0 0 0 0 0 0 0 0 0 0 0 0 0 0 0 0 0 0 0 0 0 0 0 0 0 0 0 0 0 0 0 0 0 0 0
0 0 0 0 0 0 0 0 0 0 0 0 0 0 0 0 0 0 0 0 0 0 0 0 0 0 0 0 0 0 0 0 0 0 0 0 0 0 0 0 0 0 0
0 0 0 0 0 0 0 0 0 0 0 0 0 0 0 0 0 0 0 0 0 0 0 0 0 0 0 0 0 0 0 0 0 0 0 0 0 0 0 0 0 0 0
0 0 0 0 0 0 0 0 0 0 0 0 0 0 0 0 0 0 0 0 0 0 0 0 0 0 0 0 0 0 0 0 0 0 0 0 0 0 0 0 0 0 0
0 0 0 0 0 0 0 0 0 0 0 0 0 0 0 0 0 0 0 0 0 0 0 0 0 0 0 0 0 0 0 0 0 0 0 0 0 0 0 0 0 0 0
0 0 0 0 0 0 0 0 0 0 0 0 0 0 0 0 0 0 0 0 0 0 0 0 0 0 0 0 0 0 0 0 0 0 0 0 0 0 0 0 0 0 0
0 0 0 0 0 0 0 0 0 0 0 0 0 0 0 0 0 0 0 0 0 0 0 0 0 0 0 0 0 0 0 0 0 0 0 0 0 0 0 0 0 0 0
0 0 0 0 0 0 0 0 0 0 0 0 0 0 0 0 0 0 0 0 0 0 0 0 0 0 0 0 0 0 0 0 0 0 0 0 0 0 0 0 0 0 0
0 0 0 0 0 0 0 0 0 0 0 0 0 0 0 0 0 0 0 0 0 0 0 0 0 0 0 0 0 0 0 0 0 0 0 0 0 0 0 0 0 0 0
Height
5830 5828 5826 5824 5822 5820 5818 5816 5814 5811 5809 5806 5804 5801 5799 5796 5794 5792 5790 5788 5787 5785 5784 5783 5782 5782 5782 5783 5783 5784 5785 5786 5787 5789 5790 5793 5795 5798 5800 5803 5806 5809 5812
5826 5824 5823 5821 5819 5817 5815 5813 5810 5808 5806 5803 5801 5799 5796 5794 5792 5790 5788 5786 5785 5783 5782 5781 5781 5780 5780 5780 5781 5781 5782 5783 5784 5785 5787 5789 5791 5793 5796 5798 5801 5803 5806
5822 5821 5819 5817 5815 5813 5811 5809 5806 5804 5802 5800 5798 5796 5793 5791 5789 5787 5786 5784 5782 5781 5780 5779 5779 5778 5778 5778 5778 5779 5779 5780 5781 5782 5783 5785 5787 5789 5791 5793 5796 5798 5800
5818 5816 5814 5812 5810 5808 5806 5804 5802 5800 5798 5796 5794 5792 5790 5788 5786 5784 5782 5781 5780 5779 5778 5777 5776 5776 5775 5775 5775 5775 5776 5776 5777 5778 5779 5780 5782 5784 5786 5788 5790 5792 5794
5813 5811 5809 5807 5805 5803 5801 5799 5797 5794 5792 5791 5789 5787 5785 5783 5782 5780 5779 5777 5776 5775 5774 5773 5773 5773 5772 5772 5772 5772 5772 5772 5773 5774 5775 5776 5778 5779 5781 5783 5785 5786 5788
5807 5805 5803 5800 5798 5796 5794 5792 5790 5788 5786 5784 5783 5781 5780 5778 5777 5775 5774 5773 5772 5771 5770 5770 5769 5769 5769 5768 5768 5768 5769 5769 5769 5770 5771 5772 5773 5775 5776 5777 5779 5780 5782
5800 5798 5795 5793 5791 5789 5787 5785 5783 5781 5779 5777 5776 5774 5773 5772 5770 5769 5768 5767 5767 5766 5765 5765 5765 5765 5764 5764 5764 5764 5764 5764 5765 5765 5766 5767 5768 5769 5770 5771 5772 5774 5775
5792 5790 5787 5785 5782 5780 5778 5776 5774 5772 5770 5769 5767 5766 5765 5764 5763 5762 5761 5760 5760 5760 5760 5759 5759 5759 5759 5759 5759 5759 5760 5760 5760 5761 5761 5762 5763 5763 5764 5765 5766 5767 5769
5783 5780 5777 5774 5772 5770 5767 5765 5763 5762 5760 5759 5757 5756 5756 5755 5754 5753 5753 5752 5752 5752 5752 5753 5753 5753 5754 5754 5754 5754 5754 5755 5755 5756 5756 5757 5757 5757 5758 5759 5760 5761 5762
5772 5769 5766 5763 5760 5758 5755 5753 5751 5750 5749 5748 5747 5746 5745 5745 5744 5744 5743 5743 5744 5744 5745 5745 5746 5746 5747 5747 5748 5748 5748 5749 5749 5750 5750 5751 5751 5752 5752 5753 5754 5754 5755
5759 5756 5753 5750 5747 5744 5742 5740 5738 5736 5735 5735 5734 5734 5733 5733 5733 5733 5733 5733 5734 5735 5736 5737 5738 5739 5740 5740 5741 5742 5742 5742 5743 5744 5744 5745 5745 5746 5746 5747 5747 5748 5748
5746 5742 5739 5736 5733 5730 5727 5725 5723 5721 5721 5720 5720 5720 5720 5720 5721 5721 5722 5723 5724 5725 5726 5728 5729 5730 5731 5732 5734 5735 5735 5736 5736 5737 5738 5738 5739 5740 5740 5740 5741 5741 5742
5732 5728 5724 5721 5717 5714 5712 5710 5708 5706 5705 5704 5704 5705 5705 5706 5707 5708 5709 5711 5712 5714 5716 5718 5719 5721 5722 5724 5725 5726 5727 5728 5729 5730 5731 5732 5732 5733 5733 5734 5734 5735 5735
5717 5713 5709 5705 5702 5699 5696 5694 5691 5690 5689 5688 5688 5689 5690 5691 5693 5694 5696 5698 5700 5702 5705 5707 5708 5710 5712 5714 5716 5717 5719 5720 5721 5722 5723 5724 5725 5726 5726 5727 5728 5728 5729
5701 5697 5694 5690 5686 5683 5680 5678 5676 5674 5672 5672 5672 5673 5674 5676 5678 5679 5681 5684 5687 5690 5692 5695 5697 5700 5702 5704 5706 5708 5710 5711 5713 5714 5715 5716 5717 5718 5719 5720 5720 5721 5722
5686 5682 5678 5673 5670 5666 5663 5662 5660 5658 5657 5656 5656 5656 5658 5660 5662 5664 5667 5670 5673 5676 5679 5682 5686 5689 5691 5694 5696 5698 5700 5702 5704 5705 5707 5708 5709 5710 5711 5712 5713 5714 5714
5670 5665 5661 5657 5653 5649 5646 5644 5643 5642 5641 5640 5640 5640 5642 5644 5646 5649 5651 5655 5658 5662 5665 5670 5674 5677 5680 5683 5686 5688 5690 5692 5694 5696 5698 5699 5700 5702 5703 5704 5704 5705 5706
5654 5649 5644 5640 5636 5632 5629 5626 5624 5623 5623 5623 5623 5624 5625 5627 5629 5632 5636 5639 5643 5648 5652 5657 5661 5665 5668 5671 5674 5677 5680 5682 5684 5686 5688 5690 5691 5693 5694 5695 5696 5697 5697
5638 5633 5628 5623 5619 5615 5612 5609 5607 5605 5604 5604 5605 5606 5607 5609 5612 5615 5619 5623 5629 5634 5639 5643 5648 5652 5656 5660 5663 5666 5669 5671 5674 5676 5678 5680 5682 5683 5685 5686 5687 5688 5688
5622 5617 5611 5606 5602 5598 5595 5592 5590 5588 5586 5586 5587 5588 5589 5592 5595 5599 5602 5607 5613 5618 5624 5629 5634 5639 5643 5647 5651 5654 5657 5660 5663 5665 5668 5670 5672 5673 5675 5676 5678 5678 5679
5606 5601 5596 5590 5586 5582 5578 5575 5572 5571 5570 5569 5570 5570 5572 5574 5578 5582 5586 5591 5597 5603 5608 5614 5619 5625 5630 5634 5638 5642 5646 5649 5652 5655 5657 5659 5662 5664 5665 5667 5668 5669 5670
5589 5584 5579 5574 5570 5565 5561 5558 5555 5554 5553 5552 5553 5553 5555 5557 5561 5565 5570 5575 5580 5586 5592 5598 5604 5610 5616 5621 5625 5630 5634 5638 5641 5644 5647 5649 5651 5653 5655 5657 5658 5659 5660
5573 5568 5563 5558 5554 5549 5545 5542 5538 5536 5535 5535 5535 5536 5538 5540 5544 5548 5553 5558 5564 5570 5576 5582 5588 5595 5601 5606 5612 5617 5622 5626 5630 5633 5636 5638 5641 5643 5645 5647 5648 5649 5650
5557 5552 5547 5542 5537 5533 5529 5525 5522 5520 5518 5518 5518 5519 5521 5524 5528 5532 5536 5541 5547 5553 5559 5566 5573 5579 5586 5592 5598 5603 5609 5614 5618 5621 5625 5628 5630 5632 5634 5636 5638 5639 5640
5541 5536 5531 5526 5521 5517 5513 5509 5506 5504 5502 5502 5502 5503 5505 5507 5511 5515 5520 5525 5531 5537 5544 5551 5557 5564 5571 5577 5584 5590 5596 5601 5606 5610 5613 5617 5619 5622 5624 5626 5628 5629 5630
5526 5520 5515 5510 5506 5502 5498 5494 5491 5489 5487 5486 5487 5488 5490 5492 5496 5500 5505 5510 5516 5523 5529 5536 5543 5550 5556 5563 5570 5577 5583 5588 5593 5598 5602 5606 5609 5611 5614 5616 5618 5619 5620
Wind_Speed
16 17 17 18 18 18 18 18 18 18 18 17 17 16 16 15 14 13 12 10 9 9 8 8 8 9 10 11 12 13 13 15 16 18 19 21 23 23 24 25 26 28 28
17 18 18 19 19 19 19 20 20 19 19 18 18 17 16 16 15 14 13 11 10 9 8 8 8 8 10 10 11 13 13 14 16 17 18 20 22 23 24 24 25 27 28
19 19 20 20 21 21 21 21 21 21 20 20 19 19 18 17 16 15 14 13 12 10 10 9 9 9 10 10 12 13 14 14 16 18 18 19 21 23 24 24 25 26 27
21 21 22 22 23 23 23 23 22 22 22 22 21 20 19 18 17 16 15 14 13 12 12 11 11 11 11 11 12 13 14 14 16 17 18 19 20 21 23 24 25 26 27
23 23 24 24 25 25 25 25 25 24 24 23 23 22 22 21 19 18 17 16 15 14 14 13 13 13 12 12 13 14 14 15 16 17 17 19 19 20 21 23 24 24 25
25 26 26 27 27 27 27 28 27 27 26 26 25 24 23 23 22 21 20 18 17 17 16 15 15 14 14 14 14 14 14 15 17 18 19 20 21 21 21 21 22 23 24
28 29 29 29 30 30 30 30 30 30 29 28 27 26 25 24 24 23 22 21 20 19 18 18 17 17 16 15 15 15 15 16 17 18 19 19 20 21 21 21 22 22 24
31 32 32 32 32 33 33 33 32 32 32 31 30 29 28 27 26 25 25 25 23 22 21 20 19 19 18 18 17 17 17 16 16 17 18 20 20 20 21 21 21 22 22
35 35 36 36 35 36 36 35 35 35 34 34 33 32 31 29 29 28 28 27 26 25 24 22 22 21 21 20 19 19 18 18 18 17 18 18 19 20 20 20 21 21 22
39 39 39 39 39 39 39 38 38 37 37 37 36 35 34 32 31 30 30 29 28 27 26 25 23 23 22 22 21 20 20 19 19 19 18 18 18 19 19 20 20 21 22
41 41 41 41 41 41 41 41 41 40 40 39 38 37 36 35 33 32 32 31 30 29 28 27 26 25 24 24 23 22 21 20 20 19 19 19 19 19 19 20 21 21 22
43 43 43 43 43 43 43 43 42 42 42 41 41 40 39 37 36 35 34 33 33 31 30 30 29 28 27 26 25 24 23 22 22 21 21 20 20 20 20 20 21 21 22
45 45 45 45 45 45 44 44 43 43 42 42 42 41 40 39 38 37 36 35 34 34 32 31 31 30 29 28 28 27 26 25 24 23 23 23 22 21 21 21 22 22 22
47 46 46 46 45 45 44 44 43 43 43 43 43 42 42 40 40 39 38 37 37 36 34 33 33 32 31 30 29 28 27 27 26 25 25 24 23 23 22 22 22 22 22
48 47 47 47 47 46 45 44 44 43 44 44 43 42 42 42 41 41 41 39 38 38 37 36 35 33 32 32 31 30 28 28 28 27 27 26 25 24 24 23 23 23 23
49 49 48 48 48 48 47 46 45 44 44 44 44 44 43 43 42 42 42 42 41 40 39 37 36 35 34 33 32 31 30 29 29 29 28 27 27 26 26 26 25 25 25
51 50 50 50 49 49 48 48 48 47 45 45 45 45 44 44 44 44 44 44 43 42 41 39 38 37 35 34 34 32 32 31 30 30 29 28 28 28 27 27 27 27 27
51 51 52 51 50 50 49 49 48 48 47 46 47 47 47 46 46 46 46 45 45 45 42 41 40 38 37 36 35 34 33 32 31 31 30 29 28 28 28 28 28 27 28
53 52 52 52 51 50 49 49 48 47 46 46 47 48 48 47 46 46 47 47 46 46 44 42 41 40 38 37 36 35 34 33 32 32 31 30 29 29 29 28 28 28 28
54 53 52 51 50 49 49 48 48 47 46 45 45 47 48 48 47 47 47 47 47 46 45 44 43 41 39 38 37 36 35 34 33 32 31 30 30 30 29 29 28 28 29
53 52 51 51 50 50 49 49 48 47 46 44 44 45 47 48 47 47 48 49 49 47 46 46 44 43 41 40 39 38 36 35 34 32 31 31 30 30 29 29 29 29 29
52 52 51 50 49 49 48 48 48 47 46 45 44 44 45 47 48 48 48 49 49 48 47 47 46 45 44 42 41 39 37 36 35 33 32 31 31 30 30 29 29 29 29
53 52 50 49 49 48 48 48 47 45 45 45 44 43 44 45 46 47 48 48 48 48 49 48 47 47 46 44 42 41 39 37 35 34 33 32 31 31 30 30 29 29 29
51 51 50 49 49 49 47 46 45 44 43 43 43 43 43 43 45 46 48 48 48 47 48 49 48 47 47 46 45 43 41 39 37 35 34 33 32 31 30 30 30 29 29
50 49 49 49 48 47 45 44 43 42 41 40 40 41 41 42 43 44 46 47 46 46 46 47 48 47 47 46 45 44 42 40 38 36 35 34 32 32 31 30 29 29 29
50 49 48 47 45 44 42 41 40 39 38 38 38 39 39 39 40 42 43 44 44 44 45 46 46 47 47 46 45 44 43 41 39 37 36 35 33 32 31 30 29 29 29
Wind_Direction
302 302 303 304 306 308 308 310 313 314 316 318 318 318 318 318 317 318 319 313 310 306 293 280 267 255 247 238 234 234 235 234 233 231 227 228 226 225 226 228 228 228 229
304 304 303 303 303 304 305 307 309 309 310 311 312 312 312 311 310 310 310 308 303 298 291 281 269 259 250 241 238 237 238 237 236 234 233 231 230 228 229 230 231 232 232
305 306 304 302 301 301 302 303 305 306 306 306 306 306 306 305 304 303 301 300 298 292 284 276 270 262 254 248 245 242 240 239 238 237 236 234 233 232 232 233 235 237 236
304 304 304 302 300 299 299 299 301 302 302 302 302 301 300 298 297 297 294 292 291 286 282 276 270 263 258 256 253 249 245 243 241 239 238 236 235 235 236 236 238 241 240
303 304 303 302 301 298 297 296 296 297 297 298 298 297 296 294 291 290 288 285 284 282 278 274 268 264 260 258 256 254 250 246 243 241 241 238 239 239 240 239 242 244 243
301 301 301 300 300 298 296 295 293 293 293 293 292 292 291 290 287 283 281 280 277 276 276 272 266 264 262 259 258 255 253 250 247 244 244 243 242 242 243 245 246 245 245
299 298 297 297 297 296 295 293 291 290 290 289 288 287 286 285 283 280 276 275 273 272 272 269 265 262 259 257 257 255 254 253 252 250 248 248 247 246 247 248 246 247 246
298 297 296 295 294 293 292 291 288 287 287 286 286 284 282 280 278 276 274 271 270 268 267 265 263 260 258 257 256 254 254 253 253 252 251 250 251 251 251 251 249 248 247
298 297 296 294 292 291 290 289 287 285 283 282 281 281 279 277 274 273 271 269 268 265 263 262 261 259 257 257 256 254 254 253 252 251 251 251 251 251 251 250 251 250 250
299 298 296 294 292 290 289 287 285 282 281 279 278 278 277 275 271 269 268 267 265 263 261 260 259 258 257 256 256 255 254 253 251 251 250 251 251 252 252 252 252 253 253
299 298 296 294 292 290 288 286 284 281 279 277 275 274 273 271 268 266 265 264 263 261 259 258 256 255 256 256 255 255 254 254 252 252 252 253 254 254 254 254 254 254 254
299 297 296 294 292 290 288 285 283 281 279 276 274 271 269 268 266 263 262 261 260 259 257 256 255 253 253 253 253 254 254 254 253 252 252 253 254 254 255 255 255 255 255
299 298 296 295 292 290 288 285 283 280 278 275 272 270 268 265 263 261 259 257 256 256 255 255 254 252 251 251 252 251 252 252 252 252 252 252 254 254 255 256 256 256 257
299 299 298 296 293 291 288 286 283 279 277 274 271 269 267 264 261 259 257 255 253 253 253 253 252 251 250 251 251 251 252 251 251 251 251 252 254 254 256 257 257 257 258
300 299 298 296 294 291 288 285 282 280 276 273 270 267 265 262 259 257 256 253 251 251 250 250 250 250 250 250 251 251 251 251 250 250 251 253 254 254 255 256 256 257 258
300 299 297 296 294 291 288 285 282 279 276 272 270 267 264 261 258 255 254 252 250 249 248 248 248 248 248 249 250 251 250 251 251 250 251 252 253 254 254 255 255 256 257
299 298 297 295 293 291 288 286 283 279 275 271 268 266 264 261 257 255 252 250 249 248 247 246 247 247 248 248 249 250 250 251 251 251 251 252 253 253 255 255 256 257 258
300 298 296 294 293 291 289 287 284 280 276 270 267 264 262 260 257 254 251 249 248 247 246 246 246 246 246 247 248 248 250 250 251 250 250 251 252 253 255 256 257 259 260
300 299 297 294 292 290 289 287 285 282 277 271 266 263 260 258 256 254 250 247 246 246 245 244 244 245 245 246 247 247 248 249 250 250 250 251 252 253 255 257 258 260 262
300 299 298 296 292 290 289 287 285 282 278 274 268 263 259 256 253 252 249 246 244 244 244 243 242 243 244 244 245 245 246 248 249 250 250 251 252 253 255 257 259 261 263
300 299 297 296 294 292 290 287 285 281 278 273 268 263 259 255 252 250 247 244 243 242 241 241 240 240 241 242 243 244 245 246 247 248 249 250 252 253 255 257 259 262 264
300 300 298 297 296 294 291 288 284 281 277 273 269 264 258 254 251 249 246 243 241 241 240 238 239 239 239 240 241 241 242 244 246 247 248 249 251 253 255 257 259 262 264
300 299 298 297 296 295 292 289 285 281 277 273 270 265 258 252 250 248 244 242 240 240 239 237 238 238 238 238 239 240 240 242 243 245 246 248 250 252 254 257 259 262 263
299 299 298 297 297 295 293 289 285 280 277 273 269 265 259 252 249 247 244 241 240 238 237 235 235 236 236 237 237 239 239 239 242 244 245 246 248 251 253 256 259 261 263
299 299 298 298 297 295 292 289 285 280 276 272 268 264 258 253 248 245 244 241 239 236 234 233 233 234 234 233 234 236 237 238 240 242 244 246 248 250 252 255 258 261 264
299 298 297 297 296 295 292 289 285 281 277 273 267 262 257 252 249 244 242 239 236 233 232 231 231 232 233 232 232 234 235 236 238 240 243 244 246 249 251 254 257 261 264